STARLINK-32020

Last updated on Sat Aug 03 2024 00:02:04 GMT+0000 (Coordinated Universal Time)

1 60201U 24124U 24215.17766810 -.00471352 00000+0 -93647-2 0 9996 2 60201 53.1603 166.0629 0001679 88.4513 271.6688 15.48142319 4685

Satellite not in orbit

STARLINK-32020